Location: �clusier
(49.9361°N, 2.7869°E)
Time: 18:30:29
(UTC+00:00)

NOAA 13 - Pass Details

Date: 05 February 2022
Orbit: 842 x 857 km, 98.5° (Epoch: 19 May)

Event Time Altitude Azimuth Distance (km) Brightness Sun altitude
Rises 17:25:40 0° 223° (SW) 3,391 9.0 -6.2°
Reaches altitude 10° 17:29:45 10° 254° (WSW) 2,465 9.0 -6.8°
Maximum altitude 17:31:48 12° 276° (W) 2,326 8.3 -7.1°
Drops below altitude 10° 17:33:52 10° 299° (WNW) 2,475 7.9 -7.5°
Sets 17:38:01 0° 329° (NNW) 3,421 8.1 -8.1°
